Regional Weather Roundup
Issued by NWS

Home | Current Version | Previous Version | Text Only | Print | Product List | Glossary On
Versions: 1 2 3 4 5 6 7 8 9 10 11 12 13 14 15 16 17 18 19 20 21 22 23 24 25 26 27 28 29 30 31 32 33 34 35 36 37 38 39 40 41 42 43 44 45 46 47 48 49 50
000
ASCA42 TJSJ 281911
RWRPR
PUERTO RICO/U.S. VIRGIN ISLANDS HOURLY WEATHER ROUNDUP
NATIONAL WEATHER SERVICE SAN JUAN PR
300 PM AST WED JAN 28 2015

PRZ001-004-282000-
PUERTO RICO

CITY           SKY/WX    TMP DP  RH WIND       PRES   REMARKS
SAN JUAN LMM   MOSUNNY   88  66  48 S10       29.95F HX  90
AGUADILLA      MOSUNNY   82  70  65 N8        29.97F
CEIBA          SUNNY     84  72  65 S12       29.98F
$$

PRZ006-007-282000-
U.S. VIRGIN ISLANDS

CITY           SKY/WX    TMP DP  RH WIND       PRES   REMARKS
$$

HOURLY WEATHER ROUNDUP FOR THE NEWS MEDIA

CITY           SKY/WX    TMP DP  RH WIND       PRES   REMARKS
MIAMI          MOSUNNY   66  32  28 VRB7      30.13F
ORLANDO        SUNNY     61  31  32 N10       30.18F
NEW YORK       MOSUNNY   31  10  41 NW16      30.06S WCI  20
NEWARK         MOSUNNY   31   9  39 NW15      30.07S WCI  20
CHICAGO        CLOUDY    32  18  56 S15       30.15F WCI  22
HARTFORD       MOSUNNY   24   8  50 N9G18     29.95R WCI  14
BOSTON         PTSUNNY   21   7  54 NW13      29.99R WCI   9
DALLAS         PTSUNNY   79  43  27 SE14      30.04F
PHILADELPHIA   SUNNY     33   2  26 NW13G25   30.14S WCI  24



USA.gov is the U.S. government's official web portal to all federal, state and local government web resources and services.